Location: Barcelona
(41.3830°N, 2.1830°E)
Time: 08:46:50
(UTC+02:00)

ISS - Pass Details

Date: 21 July 2017
Orbit: 400 x 408 km, 51.6° (Epoch: 21 July)

Event Time Altitude Azimuth Distance (km) Brightness Sun altitude
Exits shadow 03:34:33 - 305° (NW) 2,268 0.1 -24.2°
Reaches altitude 10° 03:37:16 10° 331° (NNW) 1,455 -0.6 -24.0°
Maximum altitude 03:39:05 14° 5° (N) 1,236 -0.5 -23.8°
Drops below altitude 10° 03:40:55 10° 40° (NE) 1,456 0.0 -23.7°
Sets 03:43:45 0° 67° (ENE) 2,317 0.8 -23.5°
